This is the latest recevied weather packets stored in our database for station/object N7ZEF. If no packets are shown the sender has not sent any weather packets the latest 10 day(s).
| Time | Temp. | Humidity | Pressure | Rain* | Wind** | Luminosity | Snow |
|---|---|---|---|---|---|---|---|
| 1777714553 | 0° C | 71% | 1025 hPa | 0 mm | - | - | - |
| 1777713953 | 0° C | 71% | 1024.8 hPa | 0 mm | - | - | - |
| 1777713350 | 0° C | 71% | 1024.9 hPa | 0 mm | - | - | - |
| 1777712749 | 0° C | 70% | 1024.9 hPa | 0 mm | - | - | - |
| 1777712147 | 0.56° C | 70% | 1024.9 hPa | 0 mm | - | - | - |
| 1777711546 | 0° C | 68% | 1025 hPa | 0 mm | - | - | - |
| 1777710945 | 0.56° C | 67% | 1024.9 hPa | 0 mm | - | - | - |
| 1777710343 | 0.56° C | 67% | 1024.9 hPa | 0 mm | - | - | - |
| 1777709742 | 0.56° C | 66% | 1024.9 hPa | 0 mm | - | - | - |
| 1777709140 | 1.11° C | 66% | 1024.9 hPa | 0 mm | - | - | - |
| 1777708539 | 1.11° C | 66% | 1024.9 hPa | 0 mm | - | - | - |
| 1777707938 | 1.11° C | 65% | 1024.8 hPa | 0 mm | - | - | - |
| 1777707335 | 1.11° C | 66% | 1024.9 hPa | 0 mm | - | - | - |
| 1777706734 | 1.11° C | 66% | 1024.9 hPa | 0 mm | - | - | - |
| 1777706133 | 1.67° C | 64% | 1024.8 hPa | 0 mm | - | - | - |
| 1777705531 | 1.67° C | 63% | 1024.6 hPa | 0 mm | - | - | - |
| 1777704929 | 1.67° C | 62% | 1024.6 hPa | 0 mm | - | - | - |
| 1777704327 | 2.22° C | 61% | 1024.6 hPa | 0 mm | - | - | - |
| 1777703726 | 2.78° C | 59% | 1024.6 hPa | 0 mm | - | - | - |
| 1777703125 | 2.78° C | 59% | 1024.5 hPa | 0 mm | - | - | - |
| 1777702523 | 2.78° C | 58% | 1024.5 hPa | 0 mm | - | - | - |
| 1777701922 | 3.33° C | 56% | 1024.5 hPa | 0 mm | - | - | - |
| 1777701321 | 3.33° C | 55% | 1024.5 hPa | 0 mm | - | - | - |
| 1777700719 | 3.89° C | 54% | 1024.4 hPa | 0 mm | - | - | - |
| 1777700118 | 3.33° C | 54% | 1024.4 hPa | 0 mm | - | - | - |
* Rain latest hour (hover to see other rain measurements)
** Current wind speed in m/s (hover to see current wind gust speed)